Time,TemperatureF,DewpointF,PressureIn,WindDirection,WindDirectionDegrees,WindSpeedMPH,WindSpeedGustMPH,Humidity,HourlyPrecipIn,Conditions,Clouds,dailyrainin,SoftwareType,DateUTC
2013-05-09 00:03:00,65.0,-99.9,-100.00,SSW,210,11.0,15.0,-999,-99.99,,,-99.99,,2013-05-09 04:03:00,
2013-05-09 00:13:00,65.0,-99.9,-100.00,SSW,205,11.0,18.0,-999,-99.99,,,-99.99,,2013-05-09 04:13:00,
2013-05-09 00:23:00,65.0,-99.9,-100.00,SSW,205,10.0,16.0,-999,-99.99,,,-99.99,,2013-05-09 04:23:00,
2013-05-09 00:33:00,65.0,-99.9,-100.00,SW,215,11.0,16.0,-999,-99.99,,,-99.99,,2013-05-09 04:33:00,
2013-05-09 00:43:00,65.0,-99.9,-100.00,SW,215,11.0,18.0,-999,-99.99,,,-99.99,,2013-05-09 04:43:00,
2013-05-09 00:53:00,65.0,-99.9,-100.00,SW,220,11.0,16.0,-999,-99.99,,,-99.99,,2013-05-09 04:53:00,
2013-05-09 01:02:00,65.0,-99.9,-100.00,SW,220,11.0,17.0,-999,-99.99,,,-99.99,,2013-05-09 05:02:00,
2013-05-09 01:12:00,65.0,-99.9,-100.00,SSW,205,11.0,16.0,-999,-99.99,,,-99.99,,2013-05-09 05:12:00,
2013-05-09 01:22:00,65.0,-99.9,-100.00,SSW,210,12.0,19.0,-999,-99.99,,,-99.99,,2013-05-09 05:22:00,
2013-05-09 01:32:00,65.0,-99.9,-100.00,SW,220,14.0,17.0,-999,-99.99,,,-99.99,,2013-05-09 05:32:00,
2013-05-09 01:43:00,65.0,-99.9,-100.00,SW,225,11.0,19.0,-999,-99.99,,,-99.99,,2013-05-09 05:43:00,
2013-05-09 01:52:00,65.0,-99.9,-100.00,SSW,210,13.0,18.0,-999,-99.99,,,-99.99,,2013-05-09 05:52:00,
2013-05-09 02:02:00,65.0,-99.9,-100.00,SW,225,12.0,18.0,-999,-99.99,,,-99.99,,2013-05-09 06:02:00,
2013-05-09 02:12:00,65.0,-99.9,-100.00,SSW,210,12.0,18.0,-999,-99.99,,,-99.99,,2013-05-09 06:12:00,
2013-05-09 02:22:00,65.0,-99.9,-100.00,SW,225,14.0,19.0,-999,-99.99,,,-99.99,,2013-05-09 06:22:00,
2013-05-09 02:32:00,65.0,-99.9,-100.00,SW,225,14.0,19.0,-999,-99.99,,,-99.99,,2013-05-09 06:32:00,
2013-05-09 02:42:00,65.0,-99.9,-100.00,SW,220,11.0,17.0,-999,-99.99,,,-99.99,,2013-05-09 06:42:00,
2013-05-09 02:52:00,65.0,-99.9,-100.00,SW,225,12.0,17.0,-999,-99.99,,,-99.99,,2013-05-09 06:52:00,
2013-05-09 03:02:00,65.0,-99.9,-100.00,SW,220,11.0,17.0,-999,-99.99,,,-99.99,,2013-05-09 07:02:00,
2013-05-09 03:12:00,65.0,-99.9,-100.00,SW,220,14.0,18.0,-999,-99.99,,,-99.99,,2013-05-09 07:12:00,
2013-05-09 03:22:00,65.0,-99.9,-100.00,SW,225,11.0,18.0,-999,-99.99,,,-99.99,,2013-05-09 07:22:00,
2013-05-09 03:32:00,65.0,-99.9,-100.00,SW,225,14.0,16.0,-999,-99.99,,,-99.99,,2013-05-09 07:32:00,
2013-05-09 03:43:00,64.0,-99.9,-100.00,SW,220,13.0,16.0,-999,-99.99,,,-99.99,,2013-05-09 07:43:00,
2013-05-09 03:52:00,64.0,-99.9,-100.00,SW,220,13.0,16.0,-999,-99.99,,,-99.99,,2013-05-09 07:52:00,
2013-05-09 04:02:00,64.0,-99.9,-100.00,SW,225,11.0,16.0,-999,-99.99,,,-99.99,,2013-05-09 08:02:00,
2013-05-09 04:11:00,64.0,-99.9,-100.00,SW,225,13.0,16.0,-999,-99.99,,,-99.99,,2013-05-09 08:11:00,
2013-05-09 04:22:00,64.0,-99.9,-100.00,SW,225,14.0,17.0,-999,-99.99,,,-99.99,,2013-05-09 08:22:00,
2013-05-09 04:32:00,64.0,-99.9,-100.00,SW,230,14.0,17.0,-999,-99.99,,,-99.99,,2013-05-09 08:32:00,
2013-05-09 04:42:00,64.0,-99.9,-100.00,SW,235,14.0,19.0,-999,-99.99,,,-99.99,,2013-05-09 08:42:00,
2013-05-09 04:52:00,64.0,-99.9,-100.00,SW,235,13.0,19.0,-999,-99.99,,,-99.99,,2013-05-09 08:52:00,
2013-05-09 05:02:00,64.0,-99.9,-100.00,SW,220,14.0,17.0,-999,-99.99,,,-99.99,,2013-05-09 09:02:00,
2013-05-09 05:12:00,64.0,-99.9,-100.00,SW,235,11.0,16.0,-999,-99.99,,,-99.99,,2013-05-09 09:12:00,
2013-05-09 05:22:00,64.0,-99.9,-100.00,SW,225,13.0,17.0,-999,-99.99,,,-99.99,,2013-05-09 09:22:00,
2013-05-09 05:32:00,64.0,-99.9,-100.00,SW,225,13.0,18.0,-999,-99.99,,,-99.99,,2013-05-09 09:32:00,
2013-05-09 05:43:00,64.0,-99.9,-100.00,SW,225,14.0,21.0,-999,-99.99,,,-99.99,,2013-05-09 09:43:00,
2013-05-09 05:53:00,63.0,-99.9,-100.00,SW,220,13.0,19.0,-999,-99.99,,,-99.99,,2013-05-09 09:53:00,
2013-05-09 06:03:00,63.0,-99.9,-100.00,SW,235,11.0,17.0,-999,-99.99,,,-99.99,,2013-05-09 10:03:00,
2013-05-09 06:12:00,63.0,-99.9,-100.00,SW,230,13.0,16.0,-999,-99.99,,,-99.99,,2013-05-09 10:12:00,
2013-05-09 06:23:00,63.0,-99.9,-100.00,SW,225,12.0,16.0,-999,-99.99,,,-99.99,,2013-05-09 10:23:00,
2013-05-09 06:33:00,63.0,-99.9,-100.00,WSW,240,14.0,19.0,-999,-99.99,,,-99.99,,2013-05-09 10:33:00,
2013-05-09 06:42:00,63.0,-99.9,-100.00,WSW,240,14.0,19.0,-999,-99.99,,,-99.99,,2013-05-09 10:42:00,
2013-05-09 06:53:00,63.0,-99.9,-100.00,SW,230,14.0,18.0,-999,-99.99,,,-99.99,,2013-05-09 10:53:00,
2013-05-09 07:03:00,63.0,-99.9,-100.00,SW,225,14.0,19.0,-999,-99.99,,,-99.99,,2013-05-09 11:03:00,
2013-05-09 07:12:00,64.0,-99.9,-100.00,SW,230,14.0,19.0,-999,-99.99,,,-99.99,,2013-05-09 11:12:00,
2013-05-09 07:23:00,64.0,-99.9,-100.00,SW,235,14.0,19.0,-999,-99.99,,,-99.99,,2013-05-09 11:23:00,
2013-05-09 07:32:00,64.0,-99.9,-100.00,WSW,250,16.0,20.0,-999,-99.99,,,-99.99,,2013-05-09 11:32:00,
2013-05-09 07:42:00,65.0,-99.9,-100.00,WSW,245,14.0,20.0,-999,-99.99,,,-99.99,,2013-05-09 11:42:00,
2013-05-09 07:52:00,65.0,-99.9,-100.00,WSW,255,14.0,20.0,-999,-99.99,,,-99.99,,2013-05-09 11:52:00,
2013-05-09 08:02:00,65.0,-99.9,-100.00,WSW,245,16.0,21.0,-999,-99.99,,,-99.99,,2013-05-09 12:02:00,
2013-05-09 08:12:00,65.0,-99.9,-100.00,WSW,250,14.0,19.0,-999,-99.99,,,-99.99,,2013-05-09 12:12:00,
2013-05-09 08:22:00,66.0,-99.9,-100.00,WSW,250,14.0,20.0,-999,-99.99,,,-99.99,,2013-05-09 12:22:00,
2013-05-09 08:32:00,66.0,-99.9,-100.00,WSW,250,11.0,18.0,-999,-99.99,,,-99.99,,2013-05-09 12:32:00,
2013-05-09 08:43:00,67.0,-99.9,-100.00,WSW,250,8.0,16.0,-999,-99.99,,,-99.99,,2013-05-09 12:43:00,
2013-05-09 08:52:00,67.0,-99.9,-100.00,West,265,6.0,16.0,-999,-99.99,,,-99.99,,2013-05-09 12:52:00,
2013-05-09 09:02:00,67.0,-99.9,-100.00,WSW,255,6.0,16.0,-999,-99.99,,,-99.99,,2013-05-09 13:02:00,
2013-05-09 09:12:00,67.0,-99.9,-100.00,WSW,255,6.0,17.0,-999,-99.99,,,-99.99,,2013-05-09 13:12:00,
2013-05-09 09:22:00,67.0,-99.9,-100.00,WSW,255,11.0,15.0,-999,-99.99,,,-99.99,,2013-05-09 13:22:00,
2013-05-09 09:32:00,68.0,-99.9,-100.00,WSW,255,8.0,15.0,-999,-99.99,,,-99.99,,2013-05-09 13:32:00,
2013-05-09 09:42:00,69.0,-99.9,-100.00,WSW,255,7.0,16.0,-999,-99.99,,,-99.99,,2013-05-09 13:42:00,
2013-05-09 09:52:00,69.0,-99.9,-100.00,West,260,11.0,14.0,-999,-99.99,,,-99.99,,2013-05-09 13:52:00,
2013-05-09 10:02:00,69.0,-99.9,-100.00,West,265,8.0,14.0,-999,-99.99,,,-99.99,,2013-05-09 14:02:00,
2013-05-09 10:11:00,70.0,-99.9,-100.00,West,270,9.0,14.0,-999,-99.99,,,-99.99,,2013-05-09 14:11:00,
2013-05-09 10:22:00,70.0,-99.9,-100.00,West,270,9.0,15.0,-999,-99.99,,,-99.99,,2013-05-09 14:22:00,
2013-05-09 10:32:00,71.0,-99.9,-100.00,West,260,9.0,15.0,-999,-99.99,,,-99.99,,2013-05-09 14:32:00,
2013-05-09 10:42:00,72.0,-99.9,-100.00,WNW,285,6.0,12.0,-999,-99.99,,,-99.99,,2013-05-09 14:42:00,
2013-05-09 10:52:00,72.0,-99.9,-100.00,West,260,9.0,14.0,-999,-99.99,,,-99.99,,2013-05-09 14:52:00,
2013-05-09 11:02:00,72.0,-99.9,-100.00,West,265,6.0,15.0,-999,-99.99,,,-99.99,,2013-05-09 15:02:00,
2013-05-09 11:12:00,74.0,-99.9,-100.00,WSW,245,2.0,15.0,-999,-99.99,,,-99.99,,2013-05-09 15:12:00,
2013-05-09 11:22:00,74.0,-99.9,-100.00,West,280,3.0,14.0,-999,-99.99,,,-99.99,,2013-05-09 15:22:00,
2013-05-09 11:33:00,74.0,-99.9,-100.00,WNW,290,3.0,9.0,-999,-99.99,,,-99.99,,2013-05-09 15:33:00,
2013-05-09 11:43:00,74.0,-99.9,-100.00,WNW,290,3.0,9.0,-999,-99.99,,,-99.99,,2013-05-09 15:43:00,
2013-05-09 11:53:00,75.0,-99.9,-100.00,West,265,9.0,14.0,-999,-99.99,,,-99.99,,2013-05-09 15:53:00,
2013-05-09 12:03:00,76.0,-99.9,-100.00,West,260,9.0,16.0,-999,-99.99,,,-99.99,,2013-05-09 16:03:00,
2013-05-09 12:12:00,75.0,-99.9,-100.00,West,265,10.0,14.0,-999,-99.99,,,-99.99,,2013-05-09 16:12:00,
2013-05-09 12:23:00,75.0,-99.9,-100.00,West,265,9.0,19.0,-999,-99.99,,,-99.99,,2013-05-09 16:23:00,
2013-05-09 12:33:00,76.0,-99.9,-100.00,West,265,8.0,16.0,-999,-99.99,,,-99.99,,2013-05-09 16:33:00,
2013-05-09 19:52:00,76.0,-99.9,-100.00,SW,215,18.0,26.0,-999,-99.99,,,-99.99,,2013-05-09 23:52:00,
2013-05-09 20:02:00,76.0,-99.9,-100.00,SW,215,9.0,21.0,-999,-99.99,,,-99.99,,2013-05-10 00:02:00,
2013-05-09 20:11:00,75.0,-99.9,-100.00,SSW,200,19.0,23.0,-999,-99.99,,,-99.99,,2013-05-10 00:11:00,
2013-05-09 20:22:00,74.0,-99.9,-100.00,SSW,210,11.0,24.0,-999,-99.99,,,-99.99,,2013-05-10 00:22:00,
2013-05-09 20:32:00,74.0,-99.9,-100.00,SSW,210,11.0,24.0,-999,-99.99,,,-99.99,,2013-05-10 00:32:00,
2013-05-09 20:42:00,73.0,-99.9,-100.00,SSW,205,10.0,21.0,-999,-99.99,,,-99.99,,2013-05-10 00:42:00,
2013-05-09 20:52:00,73.0,-99.9,-100.00,SSW,205,10.0,21.0,-999,-99.99,,,-99.99,,2013-05-10 00:52:00,
2013-05-09 21:01:00,72.0,-99.9,-100.00,SSW,210,14.0,22.0,-999,-99.99,,,-99.99,,2013-05-10 01:01:00,
2013-05-09 21:11:00,72.0,-99.9,-100.00,SSW,205,14.0,20.0,-999,-99.99,,,-99.99,,2013-05-10 01:11:00,
2013-05-09 21:22:00,72.0,-99.9,-100.00,SW,215,11.0,23.0,-999,-99.99,,,-99.99,,2013-05-10 01:22:00,
2013-05-09 21:32:00,72.0,-99.9,-100.00,SSW,205,12.0,21.0,-999,-99.99,,,-99.99,,2013-05-10 01:32:00,
2013-05-09 21:42:00,71.0,-99.9,-100.00,SW,220,13.0,20.0,-999,-99.99,,,-99.99,,2013-05-10 01:42:00,
2013-05-09 21:52:00,71.0,-99.9,-100.00,SSW,210,13.0,21.0,-999,-99.99,,,-99.99,,2013-05-10 01:52:00,
2013-05-09 22:02:00,71.0,-99.9,-100.00,SW,215,14.0,21.0,-999,-99.99,,,-99.99,,2013-05-10 02:02:00,
2013-05-09 22:11:00,71.0,-99.9,-100.00,SW,215,12.0,21.0,-999,-99.99,,,-99.99,,2013-05-10 02:11:00,
2013-05-09 22:21:00,71.0,-99.9,-100.00,SSW,210,11.0,20.0,-999,-99.99,,,-99.99,,2013-05-10 02:21:00,
2013-05-09 22:32:00,71.0,-99.9,-100.00,SSW,210,11.0,17.0,-999,-99.99,,,-99.99,,2013-05-10 02:32:00,
2013-05-09 22:42:00,71.0,-99.9,-100.00,SW,215,10.0,17.0,-999,-99.99,,,-99.99,,2013-05-10 02:42:00,
2013-05-09 22:53:00,71.0,-99.9,-100.00,SW,215,11.0,17.0,-999,-99.99,,,-99.99,,2013-05-10 02:53:00,
2013-05-09 23:01:00,71.0,-99.9,-100.00,SW,215,13.0,18.0,-999,-99.99,,,-99.99,,2013-05-10 03:01:00,
2013-05-09 23:11:00,70.0,-99.9,-100.00,SW,220,10.0,17.0,-999,-99.99,,,-99.99,,2013-05-10 03:11:00,
2013-05-09 23:22:00,70.0,-99.9,-100.00,SW,225,14.0,18.0,-999,-99.99,,,-99.99,,2013-05-10 03:22:00,
2013-05-09 23:33:00,70.0,-99.9,-100.00,SW,220,14.0,20.0,-999,-99.99,,,-99.99,,2013-05-10 03:33:00,
2013-05-09 23:43:00,70.0,-99.9,-100.00,SW,215,13.0,18.0,-999,-99.99,,,-99.99,,2013-05-10 03:43:00,
2013-05-09 23:53:00,70.0,-99.9,-100.00,SW,220,11.0,21.0,-999,-99.99,,,-99.99,,2013-05-10 03:53:00,